CAPE
2644 2817 3123 3220 3104 2989 3358 2993 2456 2942 2907 2459 2525 2528 2485 3060 2812 2919 2552 3291 2158 2532 2258 2430 3227 3259 3412 3352 2795 2890 2980 2277 2622 2664 2979 2908 2548 1654 1505 1786 1853 1842 1816 1818 1867 1954 1964 1915 1848 1794 1828 1895 2010 2170 1999 2511 2700 2766 1968 1334 1059 1035 230 135 153 228 296 250 203 209 243 258 276 275
2986 2979 3138 3145 2810 3047 2926 2761 2613 3207 3454 2942 2922 2871 2806 3025 3140 3202 2701 2917 2747 2422 2374 2451 2737 3489 3364 2265 2021 2139 2775 1988 2396 2830 3003 2432 2128 1793 1702 1845 1820 1821 1833 1852 1904 1951 1942 1847 1828 1726 1553 1588 1747 2024 1962 2365 2589 2470 1994 1298 982 1029 172 12 59 135 175 166 172 188 217 230 274 290
2965 3189 3028 2997 2902 3000 3052 3162 2548 2851 3339 3247 3167 3180 3174 3100 3029 3402 3544 2860 3545 2226 2264 2551 2706 2759 3021 2285 1846 1786 2325 2201 2246 2851 3170 2370 2035 2239 2287 1836 1848 1854 1846 1799 1813 1862 1894 1839 1753 1773 1686 1568 1442 1744 1972 2139 2448 2354 2048 1387 909 918 534 0 2 51 113 109 174 200 230 197 216 226
2961 3200 3134 3114 3118 3088 3320 3381 3139 3283 3385 3430 3213 3312 3395 3554 3350 3528 3702 3461 2388 3115 2545 2495 2652 2610 2416 2809 2049 2149 1892 2060 2394 3203 3134 2839 2366 2582 2721 2158 1791 1788 1833 1748 1728 1752 1781 1745 1691 1608 1528 1588 1388 1452 1853 1838 2537 2425 2085 1566 1127 803 750 0 1 7 6 52 148 176 208 190 214 248
3186 3664 3588 3441 3365 3590 3298 3463 3313 3096 3317 3800 3271 3348 3550 3143 3640 3688 3689 3297 3060 3172 3159 2718 2564 2403 2564 1955 2164 2103 1552 1628 2295 2559 2657 2207 2154 2608 2799 2637 1833 1678 1726 1746 1743 1771 1771 1715 1637 1519 1456 1459 1390 1334 1656 1544 1789 2357 2016 1656 1420 1176 804 219 0 0 0 17 104 167 207 187 219 232
3232 3385 3799 3617 3211 3531 3347 3172 2963 2957 3034 2852 2753 2936 2792 2947 3129 4055 3409 3380 3245 3017 3098 3419 3096 2546 2570 1912 2407 2239 2071 2094 2704 2786 2293 1245 1788 2403 2617 2674 2059 1678 1634 1621 1649 1679 1685 1670 1629 1707 1496 1352 1447 1036 1227 1357 1043 2169 1949 1619 1563 1443 1263 1006 174 0 0 0 16 65 110 173 232 205
3038 3187 3439 3386 3490 3128 2779 2881 2773 2692 2576 2577 2476 2358 2428 2708 2625 3248 3431 3208 3261 3120 3162 3344 2578 2749 2955 2232 1811 2200 2181 2568 2956 3204 2027 1004 1382 2171 2374 2581 2406 1665 1620 1567 1517 1440 1424 1598 1642 1649 1640 1606 1415 1431 1085 1084 1077 1606 1939 1544 1590 1557 1463 1288 1107 754 0 0 0 3 12 75 150 169
3399 3364 3568 3469 3407 3583 3434 3367 3267 3188 3101 2920 3043 2803 3025 3431 3064 3160 3305 3466 3270 3100 3126 3486 2955 2860 2844 2143 1779 2092 2404 2374 2824 2414 1586 771 1579 2093 1826 2158 2443 1539 1445 1378 1324 1227 1168 1316 1358 1453 1531 1599 1586 1488 1439 1317 1184 1118 1641 1440 1460 1520 1372 1460 1399 1207 867 637 22 0 0 6 32 51
3526 3489 3430 3466 3594 3831 3623 3348 3197 3041 3114 3070 2871 2813 3121 3119 2875 3067 3162 3446 3402 3345 3320 3292 3687 3606 3018 2438 2200 2473 2430 2506 2844 3328 1411 802 1316 2178 1509 1104 1778 1528 1048 1086 1120 1003 932 909 1054 1222 1385 1479 1588 1582 1502 1470 1429 1356 1360 1363 1377 1372 1411 1386 1417 1323 1216 992 716 311 0 0 0 0
3422 3375 3465 3495 3532 3603 3540 3126 3031 3324 3126 2949 2792 2643 2676 2822 2914 2899 3125 3380 3513 3404 3320 3427 3078 3682 2518 2142 2471 2506 2616 2354 2311 2150 1007 359 1345 1939 1642 1279 1455 1431 938 1167 1370 1065 625 431 500 723 980 1284 1457 1575 1632 1560 1454 1455 1459 1431 1386 1371 1296 1308 1444 1471 1392 1361 1167 860 520 0 0 0
3142 3196 3312 3446 3711 3598 3331 2926 2713 2718 2788 2721 2522 2638 2849 2784 2736 2595 2725 3096 3063 3164 3061 3016 3240 2800 2578 2107 2246 2705 2686 2774 2336 1460 642 233 773 1709 2068 1925 1710 1524 990 950 907 799 715 569 365 361 407 631 909 1129 1365 1522 1577 1563 1490 1434 1438 1453 1420 1385 1406 1412 1462 1432 1390 1380 1025 647 297 0
3054 3564 3272 3020 3126 3412 3484 3243 2939 2743 2528 2599 2603 2352 2506 2574 2612 2275 2257 2775 2849 2949 2769 2791 2646 2681 2569 2522 2520 2481 2645 2858 3042 1686 577 273 358 969 2276 2045 2213 2303 1255 279 652 986 809 858 606 512 389 505 615 673 758 943 1130 1410 1650 1577 1519 1502 1430 1358 1371 1397 1404 1450 1526 1495 1462 1160 845 586
3570 3938 3503 3083 2896 2910 3232 3074 2688 2293 2292 2054 2178 2595 2821 3042 3079 2987 2743 3035 3202 3316 2909 3120 3324 2646 2402 2534 2771 2357 2515 2410 1913 1056 718 612 335 358 1638 2072 2090 1988 1452 189 224 921 1174 1103 1331 557 653 760 787 737 586 630 889 953 1038 1238 1668 1750 1748 1705 1632 1577 1585 1534 1492 1462 1445 1397 1301 1066
3006 3223 3586 3657 3581 3469 3308 3293 3238 3144 3161 2917 2602 2805 3479 4115 3874 3509 3288 3033 2406 2038 3161 2754 2696 2401 2175 2536 2926 2238 2088 2249 2249 1426 907 370 281 444 891 1831 1473 1395 1577 540 231 523 1022 1131 1285 807 236 253 282 135 112 222 570 780 795 704 697 956 1420 1665 1751 1782 1784 1754 1727 1732 1579 1397 1302 1383
2893 2919 3152 3135 3150 3643 3745 3607 3626 3709 3675 3983 4042 3656 3569 3560 3914 3216 2888 2802 2733 2934 2711 2416 2460 2027 2314 2738 2631 2215 1705 1867 1491 799 612 418 529 715 279 1216 1761 774 1683 1504 439 389 1159 1498 1288 820 157 0 0 0 0 0 154 188 134 132 112 204 645 662 808 1050 1364 1534 1622 1720 1756 1775 1529 1376
2978 3005 2999 2933 2820 2772 3071 3021 3415 3642 3738 3900 3696 3698 3670 3659 3742 3657 2860 2518 2099 2766 2432 2354 2167 1954 2767 3034 2804 2080 1881 2075 1556 1066 451 789 552 678 950 1427 1648 664 869 1340 268 146 860 1058 824 617 45 0 0 0 0 0 0 0 0 0 0 0 104 561 986 1114 1221 1344 1481 1591 1691 1752 1792 1705
3295 3406 3263 2974 2588 2730 3018 3385 2438 1543 1066 1554 2464 2486 2762 3289 3517 3463 3441 3132 2937 2236 2628 2071 1885 2527 2813 3057 2820 2274 2186 1545 961 946 871 1103 709 999 843 1351 938 273 343 1346 64 40 276 680 568 325 12 58 23 0 0 0 0 0 0 0 0 0 0 0 97 370 749 1106 1305 1398 1400 1380 1362 1412
2403 2614 2752 2770 2520 2412 2906 3394 1842 1324 1285 1606 1995 2732 2527 2857 3089 3762 3708 3476 3390 2963 2426 1866 2064 3059 3380 3081 3189 3002 2017 973 684 552 675 1150 1097 906 1193 947 635 190 128 184 50 49 137 296 303 236 6 165 14 0 0 0 0 0 0 0 0 0 0 0 0 0 20 126 260 389 476 470 398 436
2383 2545 2515 2780 2922 2939 3064 2237 1581 1451 1108 1108 1240 1558 1742 1840 2197 2742 2871 3621 3502 2883 2351 1586 2084 2701 3728 3464 3389 2704 1148 850 625 903 1302 1265 1161 717 1188 1129 808 401 98 170 147 21 67 191 152 108 3 0 0 0 0 0 0 0 0 0 0 0 0 0 0 0 0 0 0 0 0 0 0 0
2162 2261 2348 2422 2614 2597 2478 1948 1246 1336 1315 1050 1149 1466 1570 1677 2034 1913 1640 1920 2174 2508 3017 3254 2988 2800 2532 2564 2175 1647 1071 878 1134 710 673 622 632 1355 1393 1302 660 258 76 88 101 5 18 109 63 14 0 0 0 0 0 0 0 0 0 0 0 0 0 0 0 0 0 0 0 0 0 0 0 0
1547 1650 1743 1788 1713 1763 1824 1688 1086 1055 1232 1260 1065 1223 1301 1444 1636 1150 866 1293 1628 1704 1935 2233 2474 2421 2102 1535 1303 1178 626 486 787 822 650 1024 889 783 604 488 404 172 48 25 94 13 5 12 102 28 0 0 0 0 0 0 0 0 0 0 0 0 0 0 0 0 0 0 0 0 0 0 0 0
1105 1182 1284 1474 1237 1315 1429 1028 945 829 786 836 1007 799 1034 1234 1573 1223 789 1094 1295 1430 1503 1542 1573 1329 1128 1212 1025 649 440 400 436 746 748 743 544 485 441 315 264 94 35 56 86 12 0 0 6 102 31 0 0 0 0 0 0 0 0 0 0 0 0 0 0 0 0 0 0 0 0 0 0 0
416 491 464 297 275 258 277 344 519 607 640 744 807 924 1344 1096 733 1270 859 919 1057 1001 987 1111 1108 1030 720 697 622 922 445 368 275 916 934 496 377 345 128 73 144 17 2 27 138 36 0 0 0 1 14 15 0 0 0 0 0 0 0 0 0 0 0 0 0 0 0 0 0 0 0 0 0 0
329 348 366 345 343 278 248 241 271 329 506 587 626 579 461 521 660 688 674 714 738 359 579 970 805 712 586 362 333 424 873 356 665 1076 450 186 135 74 14 0 0 4 1 0 111 12 0 0 0 0 0 0 4 0 0 0 0 0 0 0 0 0 0 0 0 0 0 0 0 0 0 0 0 0
208 204 201 181 156 101 0 0 0 49 139 186 244 283 357 448 579 676 608 578 569 434 646 627 556 439 322 252 258 289 457 448 517 252 109 48 8 56 44 0 0 0 0 0 50 16 0 0 0 0 0 0 0 0 0 0 0 0 0 0 0 0 0 0 0 0 0 0 0 0 0 0 0 0
129 126 116 91 24 0 0 66 0 0 64 82 69 117 291 544 632 675 507 426 526 574 560 595 502 402 365 322 252 308 209 202 191 122 10 2 129 8 2 0 0 0 0 0 3 0 0 0 0 0 0 0 0 0 0 0 0 0 0 0 0 0 0 0 0 0 0 0 0 0 0 0 0 0
78 56 40 29 40 0 0 0 0 0 0 0 35 36 231 397 243 323 381 455 451 428 415 415 439 390 308 193 479 413 561 280 205 81 70 15 13 9 1 0 0 0 0 0 0 0 0 0 0 0 0 0 0 0 0 0 0 0 0 0 0 0 0 0 0 0 0 0 0 0 0 0 0 0
56 39 22 0 0 0 0 0 0 0 0 0 0 88 201 275 425 360 306 333 272 277 271 248 261 244 170 381 268 501 483 349 165 59 43 46 9 63 0 59 38 0 0 0 0 0 0 0 0 0 0 0 0 0 0 0 0 0 0 0 0 0 0 0 0 0 0 0 0 0 0 0 0 0
29 8 0 0 0 0 0 0 0 0 0 0 0 110 142 223 211 280 68 93 149 118 145 106 86 172 154 169 141 219 153 49 9 16 1 0 0 14 0 0 0 0 0 0 0 0 0 0 0 0 0 0 0 0 0 0 0 0 0 0 0 0 0 0 0 0 0 0 0 0 0 0 0 0
0 0 0 0 0 0 0 0 0 2 0 0 0 25 13 25 46 0 0 15 37 52 26 33 66 6 2 1 20 16 11 19 66 35 3 5 1 0 0 0 0 0 0 0 0 0 0 0 0 0 0 0 0 0 0 0 0 0 0 0 0 0 0 0 0 0 0 0 0 0 0 0 0 0
0 0 0 0 0 0 0 0 0 0 0 0 0 0 0 0 0 0 5 13 35 7 1 4 2 1 22 26 22 14 5 0 3 35 33 10 5 0 0 0 0 0 0 0 0 0 0 0 0 0 0 0 0 0 0 0 0 0 0 0 0 0 0 0 0 0 0 0 0 0 0 0 0 0
0 0 0 0 1 1 0 0 0 2 4 2 2 3 5 5 5 2 0 0 0 0 0 0 1 0 7 20 0 0 0 0 0 15 25 23 18 11 4 0 0 0 0 0 0 0 0 0 0 0 0 0 0 0 0 0 0 0 0 0 0 0 0 0 0 0 0 0 0 0 0 0 0 0
0 0 0 1 0 0 0 0 0 0 0 0 0 0 0 0 0 0 0 0 0 0 0 0 0 0 0 0 0 0 0 0 24 26 26 24 15 9 2 0 0 0 0 0 0 0 0 0 0 0 0 0 0 0 0 0 0 0 0 0 0 0 0 0 0 0 0 0 0 0 0 0 0 0
0 1 0 0 0 0 1 2 1 0 0 0 0 0 0 0 0 0 0 0 0 0 0 0 0 2 0 0 4 0 14 18 24 25 20 21 14 8 0 0 0 0 0 0 0 0 0 0 0 0 0 0 0 0 0 0 0 0 0 0 0 0 0 0 0 0 0 0 0 0 0 0 0 0
0 0 0 0 0 0 0 0 0 0 0 0 0 0 0 0 0 0 0 0 0 0 0 4 6 8 11 4 1 4 9 18 23 20 12 7 0 0 0 0 0 0 0 0 0 0 0 0 0 0 0 0 0 0 0 0 0 0 0 0 0 0 0 0 0 0 0 0 0 0 0 0 0 0
0 0 0 0 0 2 1 0 0 0 0 0 0 0 0 0 0 0 0 0 0 3 6 7 7 9 14 16 15 11 14 12 14 1 0 0 0 0 0 0 0 0 0 0 0 0 0 0 0 0 0 0 0 0 0 0 0 0 0 0 0 1 0 0 0 0 0 0 0 0 0 0 0 0
0 0 0 0 0 0 0 0 0 0 0 0 0 0 0 0 0 0 1 2 3 6 6 7 9 3 0 3 5 0 0 0 0 0 0 0 0 0 0 0 0 0 0 0 0 0 0 0 0 0 0 0 0 0 0 0 0 0 0 0 0 1 0 0 0 0 0 0 0 0 0 0 0 0
0 0 0 0 0 0 0 0 0 0 0 0 0 1 1 0 2 1 0 0 0 0 0 0 0 0 0 0 0 0 0 0 0 0 0 0 0 0 0 0 0 0 0 0 0 0 0 0 0 0 0 0 0 0 0 0 0 0 0 0 0 0 0 1 0 0 2 0 0 0 0 0 0 0
0 0 0 0 0 0 0 0 0 0 0 0 0 0 0 0 0 0 0 1 2 0 0 0 0 0 0 0 0 0 0 0 0 0 0 0 0 0 0 0 0 0 0 0 0 0 0 0 0 0 0 0 0 0 0 0 0 0 0 0 0 0 0 0 0 0 0 0 0 0 1 2 3 0
0 0 0 0 0 0 0 0 0 0 0 0 0 0 0 0 0 0 0 0 0 0 0 0 0 0 0 0 0 0 0 0 0 0 0 0 0 0 0 0 0 0 0 0 0 0 0 0 0 0 0 0 0 0 0 0 0 0 0 17 0 0 0 1 0 1 0 2 2 0 0 0 0 1
0 0 0 0 0 0 0 1 0 1 1 1 1 0 0 0 0 0 0 0 0 0 0 0 0 0 0 0 0 0 0 0 0 0 0 0 0 0 0 0 0 0 0 0 0 0 0 0 0 0 0 0 0 0 0 0 0 0 0 0 0 0 0 0 0 2 2 5 4 2 1 1 1 1
0 0 0 0 0 0 0 0 0 0 0 0 0 0 0 0 0 0 0 0 0 0 0 0 0 0 0 0 0 0 0 0 0 0 0 0 0 0 0 0 0 0 0 0 0 0 0 0 0 2 0 1 0 0 0 0 0 0 0 0 2 1 0 0 0 0 0 1 0 0 0 0 2 2
0 0 0 0 0 0 0 0 0 0 0 0 0 0 0 0 0 0 0 0 0 0 0 0 0 0 0 0 0 0 0 0 0 0 0 0 0 0 0 0 0 0 0 0 0 0 0 0 0 0 0 0 0 0 0 0 0 1 5 2 4 7 5 4 0 0 0 0 0 0 0 0 0 0
0 0 0 0 0 0 0 0 0 0 0 0 0 0 0 0 0 0 0 0 0 0 0 0 0 0 0 0 0 0 0 0 0 0 0 0 0 0 0 0 0 0 0 0 0 0 0 0 0 2 0 0 2 1 0 1 0 3 4 6 9 12 6 6 8 6 1 1 0 0 0 0 0 0
0 0 0 0 0 0 0 0 0 0 0 0 0 0 0 0 0 0 0 0 0 0 0 0 0 0 0 0 0 0 0 0 0 0 0 0 0 0 0 0 0 0 0 0 1 0 1 1 0 3 4 4 5 6 8 7 6 8 7 8 10 10 7 9 8 6 6 8 0 0 0 0 0 2
Wind_Speed
3 4 4 4 4 4 5 4 5 6 5 4 4 4 3 3 2 2 2 0 1 1 2 2 2 3 3 2 2 1 2 5 4 3 3 4 4 3 3 3 4 2 0 0 1 2 2 2 3 4 4 3 4 7 9 19 22 22 24 24 23 23 24 23 20 19 19 21 22 22 21 21 21 21
4 4 4 5 4 5 4 5 6 7 7 6 5 4 4 5 4 2 2 1 3 2 1 0 2 3 2 2 2 2 1 5 5 4 3 3 4 3 6 4 3 0 1 1 1 2 2 1 2 3 4 4 3 6 9 18 21 23 24 23 23 22 23 nan nan 21 20 21 22 22 22 22 22 21
4 4 4 4 4 5 4 5 7 8 8 6 6 6 6 6 5 3 4 4 6 3 2 2 1 2 3 2 3 2 1 3 3 3 3 4 1 9 11 6 4 2 2 2 2 2 3 3 3 3 3 3 2 4 9 17 21 22 23 23 22 22 21 nan nan nan 20 20 21 21 21 22 21 20
5 4 4 4 5 5 5 6 6 7 7 6 6 7 7 7 7 6 6 5 3 4 3 3 3 3 2 2 2 3 2 4 6 2 3 4 4 5 8 14 8 5 2 2 2 3 4 4 4 3 3 3 2 1 8 13 20 21 22 22 21 21 21 nan nan nan nan nan 20 21 21 21 21 19
5 5 4 4 4 5 5 6 5 6 7 7 7 7 7 7 8 9 8 6 5 5 6 6 5 5 3 3 1 1 2 2 3 1 6 6 6 6 7 9 13 6 4 3 3 4 4 5 5 4 4 3 3 2 3 8 14 20 21 20 20 21 22 22 nan nan nan nan 19 19 18 19 19 19
4 5 4 4 4 5 4 4 5 5 5 5 5 6 5 5 6 9 8 7 6 5 7 7 7 6 6 4 5 2 1 3 3 4 6 7 8 8 8 9 12 9 6 5 5 6 6 7 7 6 5 4 3 3 1 6 11 17 18 19 20 21 22 22 21 nan nan nan nan nan 16 16 16 18
4 4 4 4 5 5 4 5 5 5 5 4 4 4 4 4 5 8 9 7 6 5 6 7 7 8 7 6 7 6 6 6 7 5 7 8 9 9 10 11 13 12 7 8 9 10 11 10 9 9 8 6 5 5 5 4 7 14 16 17 18 19 20 20 21 21 nan nan nan nan nan nan 15 17
5 4 4 4 4 5 4 5 5 6 5 5 5 4 5 6 6 9 10 11 8 7 6 7 7 8 7 8 9 9 8 8 10 8 9 11 11 10 11 13 13 13 10 12 13 14 15 14 12 12 12 11 10 10 9 7 6 9 14 16 16 16 17 18 19 19 19 18 nan nan nan nan nan nan
5 5 4 5 5 6 5 5 6 6 6 6 5 5 7 7 8 9 10 11 11 9 7 7 8 9 9 10 11 12 11 11 11 10 10 13 14 12 12 14 15 17 17 19 17 18 19 17 16 15 14 14 14 13 13 11 9 8 11 13 14 14 15 16 15 15 16 17 17 16 nan nan nan nan
7 6 6 6 6 7 6 5 5 6 6 7 7 7 7 8 9 9 10 11 11 10 9 9 8 10 9 10 11 14 14 13 13 13 12 14 16 15 14 15 14 12 12 11 14 17 19 22 20 17 15 14 16 16 14 14 12 10 9 11 11 11 12 13 14 15 14 14 16 16 15 nan nan nan
8 8 8 8 8 7 7 6 6 7 8 8 7 7 8 10 10 11 11 12 12 12 11 11 11 9 11 11 11 15 16 16 16 16 14 13 15 16 15 15 14 12 13 19 17 15 15 16 17 18 18 16 14 16 17 14 14 13 11 10 9 9 9 9 9 11 12 13 12 12 13 14 14 nan
9 9 8 8 8 9 8 8 8 9 9 10 10 11 12 12 12 11 11 13 14 13 12 12 11 12 12 12 13 15 16 16 17 17 16 14 13 15 16 16 14 13 12 11 14 16 17 17 19 19 19 18 17 14 17 17 15 14 12 12 10 9 8 8 9 9 9 10 11 11 12 12 11 12
9 10 9 8 7 7 8 7 7 7 9 10 11 12 14 14 14 13 13 14 14 15 14 13 16 15 14 13 14 15 16 16 16 17 16 16 15 15 17 19 17 15 15 15 15 16 13 14 14 15 15 15 16 18 16 17 17 15 15 15 14 11 9 7 6 7 8 8 8 8 8 8 8 7
8 8 9 9 6 7 6 6 6 8 9 11 9 10 12 13 14 14 14 14 15 14 15 14 15 15 14 13 16 15 16 18 17 17 17 17 18 16 18 21 20 18 16 17 17 17 17 17 18 18 18 17 18 17 17 15 14 16 17 18 18 17 16 15 12 9 7 7 7 8 7 8 10 9
10 9 9 9 8 9 8 8 9 9 9 9 13 12 11 11 12 13 14 14 15 15 15 15 15 14 13 13 15 16 17 18 18 17 18 18 19 20 19 20 22 20 18 18 17 18 19 19 21 21 21 nan nan nan nan nan 19 20 21 21 21 20 20 20 20 20 17 13 11 11 8 7 9 9
13 11 11 10 10 9 8 8 9 11 12 13 13 13 14 15 15 14 14 14 14 15 15 16 16 15 16 16 16 15 17 18 19 19 18 19 19 19 21 23 23 23 19 19 18 19 20 21 22 23 nan nan nan nan nan nan nan nan nan nan nan nan 23 23 23 23 23 21 18 14 11 10 12 10
14 13 12 11 11 11 10 9 17 23 18 12 12 14 14 15 16 18 18 17 16 15 15 15 16 17 16 16 17 17 18 20 19 20 19 21 20 20 21 22 25 25 20 21 nan nan 21 21 23 25 nan nan nan nan nan nan nan nan nan nan nan nan nan nan nan 25 24 24 23 22 19 16 15 15
17 16 15 13 12 13 14 20 21 23 23 21 19 18 19 19 20 21 22 21 20 17 15 15 16 18 20 18 18 21 22 21 21 21 21 23 21 22 22 24 26 25 23 23 nan nan 24 23 24 26 nan 27 nan nan nan nan nan nan nan nan nan nan nan nan nan nan nan 25 24 24 23 22 21 19
18 18 18 17 16 17 18 23 22 23 24 26 24 22 21 21 21 22 22 22 23 23 20 17 17 19 22 21 22 23 23 22 23 24 24 25 24 26 27 27 26 27 nan 26 25 nan nan 26 27 27 nan nan nan nan nan nan nan nan nan nan nan nan nan nan nan nan nan nan nan nan nan nan nan nan
21 21 21 21 20 19 18 23 25 24 26 27 27 26 25 24 24 26 32 31 28 26 24 22 22 24 27 29 26 26 25 26 25 26 26 28 29 28 27 27 30 29 nan nan 29 nan nan 25 nan nan nan nan nan nan nan nan nan nan nan nan nan nan nan nan nan nan nan nan nan nan nan nan nan nan
21 23 23 23 22 20 19 24 27 26 26 28 30 31 30 27 27 29 35 35 33 32 33 34 33 30 30 27 27 26 26 25 26 26 27 28 29 30 29 30 29 32 nan nan nan nan nan nan 27 nan nan nan nan nan nan nan nan nan nan nan nan nan nan nan nan nan nan nan nan nan nan nan nan nan
25 25 24 23 24 23 24 29 30 31 30 28 31 33 32 30 29 30 33 34 36 38 36 37 37 34 28 25 26 27 28 27 26 28 26 29 29 30 30 30 31 nan nan nan nan nan nan nan nan 26 nan nan nan nan nan nan nan nan nan nan nan nan nan nan nan nan nan nan nan nan nan nan nan nan
29 31 31 40 38 35 34 37 39 39 35 29 28 30 33 35 34 36 40 35 33 33 38 40 37 33 31 29 27 30 29 28 26 27 26 30 30 31 30 nan 34 nan nan nan 31 nan nan nan nan nan nan nan nan nan nan nan nan nan nan nan nan nan nan nan nan nan nan nan nan nan nan nan nan nan
32 33 32 36 41 39 39 39 39 40 39 33 30 30 34 37 40 45 43 41 36 34 37 40 39 35 32 31 28 27 30 29 28 28 29 30 31 nan nan nan nan nan nan nan 31 nan nan nan nan nan nan nan nan nan nan nan nan nan nan nan nan nan nan nan nan nan nan nan nan nan nan nan nan nan
35 37 37 35 41 39 nan nan nan nan 41 38 36 36 36 41 47 45 41 40 38 36 36 37 37 35 32 31 30 29 31 31 32 34 36 nan nan nan nan nan nan nan nan nan nan nan nan nan nan nan nan nan nan nan nan nan nan nan nan nan nan nan nan nan nan nan nan nan nan nan nan nan nan nan
31 33 35 nan nan nan nan nan nan nan nan nan nan 38 36 36 39 37 35 35 35 35 33 34 37 35 32 30 31 29 30 33 35 37 nan nan 39 nan nan nan nan nan nan nan nan nan nan nan nan nan nan nan nan nan nan nan nan nan nan nan nan nan nan nan nan nan nan nan nan nan nan nan nan nan
nan nan nan nan nan nan nan nan nan nan nan nan nan nan 31 27 23 25 27 28 27 27 27 29 32 34 32 32 34 35 35 33 31 nan nan nan nan nan nan nan nan nan nan nan nan nan nan nan nan nan nan nan nan nan nan nan nan nan nan nan nan nan nan nan nan nan nan nan nan nan nan nan nan nan
nan nan nan nan nan nan nan nan nan nan nan nan nan nan 29 21 17 20 22 24 25 24 24 24 26 28 30 33 37 37 37 38 37 nan nan nan nan nan nan nan nan nan nan nan nan nan nan nan nan nan nan nan nan nan nan nan nan nan nan nan nan nan nan nan nan nan nan nan nan nan nan nan nan nan
nan nan nan nan nan nan nan nan nan nan nan nan nan 32 27 24 26 24 nan nan 28 28 24 24 nan 30 34 37 40 40 43 nan nan nan nan nan nan nan nan nan nan nan nan nan nan nan nan nan nan nan nan nan nan nan nan nan nan nan nan nan nan nan nan nan nan nan nan nan nan nan nan nan nan nan
nan nan nan nan nan nan nan nan nan nan nan nan nan nan nan nan nan nan nan nan nan nan nan nan nan nan nan nan nan nan nan nan nan nan nan nan nan nan nan nan nan nan nan nan nan nan nan nan nan nan nan nan nan nan nan nan nan nan nan nan nan nan nan nan nan nan nan nan nan nan nan nan nan nan
nan nan nan nan nan nan nan nan nan nan nan nan nan nan nan nan nan nan nan nan nan nan nan nan nan nan nan nan nan nan nan nan nan nan nan nan nan nan nan nan nan nan nan nan nan nan nan nan nan nan nan nan nan nan nan nan nan nan nan nan nan nan nan nan nan nan nan nan nan nan nan nan nan nan
nan nan nan nan nan nan nan nan nan nan nan nan nan nan nan nan nan nan nan nan nan nan nan nan nan nan nan nan nan nan nan nan nan nan nan nan nan nan nan nan nan nan nan nan nan nan nan nan nan nan nan nan nan nan nan nan nan nan nan nan nan nan nan nan nan nan nan nan nan nan nan nan nan nan
nan nan nan nan nan nan nan nan nan nan nan nan nan nan nan nan nan nan nan nan nan nan nan nan nan nan nan nan nan nan nan nan nan nan nan nan nan nan nan nan nan nan nan nan nan nan nan nan nan nan nan nan nan nan nan nan nan nan nan nan nan nan nan nan nan nan nan nan nan nan nan nan nan nan
nan nan nan nan nan nan nan nan nan nan nan nan nan nan nan nan nan nan nan nan nan nan nan nan nan nan nan nan nan nan nan nan nan nan nan nan nan nan nan nan nan nan nan nan nan nan nan nan nan nan nan nan nan nan nan nan nan nan nan nan nan nan nan nan nan nan nan nan nan nan nan nan nan nan
nan nan nan nan nan nan nan nan nan nan nan nan nan nan nan nan nan nan nan nan nan nan nan nan nan nan nan nan nan nan nan nan nan nan nan nan nan nan nan nan nan nan nan nan nan nan nan nan nan nan nan nan nan nan nan nan nan nan nan nan nan nan nan nan nan nan nan nan nan nan nan nan nan nan
nan nan nan nan nan nan nan nan nan nan nan nan nan nan nan nan nan nan nan nan nan nan nan nan nan nan nan nan nan nan nan nan nan nan nan nan nan nan nan nan nan nan nan nan nan nan nan nan nan nan nan nan nan nan nan nan nan nan nan nan nan nan nan nan nan nan nan nan nan nan nan nan nan nan
nan nan nan nan nan nan nan nan nan nan nan nan nan nan nan nan nan nan nan nan nan nan nan nan nan nan nan nan nan nan nan nan nan nan nan nan nan nan nan nan nan nan nan nan nan nan nan nan nan nan nan nan nan nan nan nan nan nan nan nan nan nan nan nan nan nan nan nan nan nan nan nan nan nan
nan nan nan nan nan nan nan nan nan nan nan nan nan nan nan nan nan nan nan nan nan nan nan nan nan nan nan nan nan nan nan nan nan nan nan nan nan nan nan nan nan nan nan nan nan nan nan nan nan nan nan nan nan nan nan nan nan nan nan nan nan nan nan nan nan nan nan nan nan nan nan nan nan nan
nan nan nan nan nan nan nan nan nan nan nan nan nan nan nan nan nan nan nan nan nan nan nan nan nan nan nan nan nan nan nan nan nan nan nan nan nan nan nan nan nan nan nan nan nan nan nan nan nan nan nan nan nan nan nan nan nan nan nan nan nan nan nan nan nan nan nan nan nan nan nan nan nan nan
nan nan nan nan nan nan nan nan nan nan nan nan nan nan nan nan nan nan nan nan nan nan nan nan nan nan nan nan nan nan nan nan nan nan nan nan nan nan nan nan nan nan nan nan nan nan nan nan nan nan nan nan nan nan nan nan nan nan nan nan nan nan nan nan nan nan nan nan nan nan nan nan nan nan
nan nan nan nan nan nan nan nan nan nan nan nan nan nan nan nan nan nan nan nan nan nan nan nan nan nan nan nan nan nan nan nan nan nan nan nan nan nan nan nan nan nan nan nan nan nan nan nan nan nan nan nan nan nan nan nan nan nan nan nan nan nan nan nan nan nan nan nan nan nan nan nan nan nan
nan nan nan nan nan nan nan nan nan nan nan nan nan nan nan nan nan nan nan nan nan nan nan nan nan nan nan nan nan nan nan nan nan nan nan nan nan nan nan nan nan nan nan nan nan nan nan nan nan nan nan nan nan nan nan nan nan nan nan nan nan nan nan nan nan nan nan nan nan nan nan nan nan nan
nan nan nan nan nan nan nan nan nan nan nan nan nan nan nan nan nan nan nan nan nan nan nan nan nan nan nan nan nan nan nan nan nan nan nan nan nan nan nan nan nan nan nan nan nan nan nan nan nan nan nan nan nan nan nan nan nan nan nan nan nan nan nan nan nan nan nan nan nan nan nan nan nan nan
nan nan nan nan nan nan nan nan nan nan nan nan nan nan nan nan nan nan nan nan nan nan nan nan nan nan nan nan nan nan nan nan nan nan nan nan nan nan nan nan nan nan nan nan nan nan nan nan nan nan nan nan nan nan nan nan nan nan nan nan nan nan nan nan nan nan nan nan nan nan nan nan nan nan
nan nan nan nan nan nan nan nan nan nan nan nan nan nan nan nan nan nan nan nan nan nan nan nan nan nan nan nan nan nan nan nan nan nan nan nan nan nan nan nan nan nan nan nan nan nan nan nan nan nan nan nan nan nan nan nan nan nan nan nan nan nan nan nan nan nan nan nan nan nan nan nan nan nan
Wind_Direction
308 313 305 296 293 293 289 305 317 313 324 344 356 10 22 8 43 89 111 5 113 42 127 118 302 214 206 214 224 262 229 214 147 251 277 293 307 301 17 5 18 39 25 206 156 140 167 145 141 151 152 136 80 50 29 13 11 9 8 12 16 15 11 12 15 17 15 15 13 15 15 16 15 15
304 301 299 291 292 290 300 308 317 322 333 340 345 355 4 3 27 28 58 47 13 20 339 87 268 274 214 232 219 269 178 244 146 242 265 273 287 46 5 340 338 299 189 222 198 200 193 153 158 153 150 139 101 45 21 7 7 7 7 9 15 19 13 nan nan 13 15 13 12 14 18 15 14 14
293 290 292 291 294 293 300 314 333 329 333 333 332 336 339 347 358 5 5 35 333 333 337 319 297 286 284 232 197 203 200 252 185 229 262 274 342 51 327 308 280 254 224 205 219 211 223 225 207 183 163 148 119 13 4 2 5 5 6 8 12 19 17 nan nan nan 13 14 11 13 16 17 15 13
289 296 306 304 305 304 314 324 330 332 330 326 330 330 329 331 336 341 357 17 23 339 348 336 341 315 283 305 170 181 150 306 350 259 291 283 21 348 326 305 260 262 235 222 209 207 219 227 223 204 179 176 147 5 353 356 360 2 4 6 8 15 17 nan nan nan nan nan 15 12 13 14 17 15
297 302 307 314 319 317 333 334 343 350 345 341 342 336 334 339 337 343 352 8 15 354 343 345 335 309 305 294 280 157 179 220 251 322 288 299 303 319 319 315 280 257 260 249 230 222 226 229 230 218 204 198 180 201 342 343 356 359 4 3 3 10 14 15 nan nan nan nan 15 16 16 13 12 12
291 296 305 308 315 321 338 344 3 0 360 6 6 350 347 344 342 339 351 357 6 10 348 346 333 326 320 321 319 315 298 257 288 265 278 292 300 308 315 312 295 266 272 272 268 257 249 244 243 237 226 219 225 245 275 335 350 360 2 359 360 6 10 13 14 nan nan nan nan nan 18 18 16 10
282 293 299 303 301 307 327 337 347 353 2 3 11 16 355 357 351 342 347 351 1 3 347 336 340 325 322 323 320 326 317 315 310 299 285 289 295 305 304 304 303 286 286 287 284 275 266 260 256 253 250 246 251 266 276 287 340 357 355 354 357 2 6 10 11 12 nan nan nan nan nan nan 20 19
271 279 285 292 291 295 314 327 330 331 339 344 343 353 342 343 346 337 338 343 344 340 340 328 325 319 323 321 319 316 315 308 301 296 297 297 292 296 301 301 300 299 304 298 291 282 276 269 263 262 259 256 254 255 260 269 297 338 346 347 353 359 1 6 10 8 8 12 nan nan nan nan nan nan
272 279 286 286 292 298 308 316 323 323 333 330 328 327 323 327 329 327 332 334 335 335 340 333 326 324 326 320 316 307 299 298 303 301 291 293 290 293 292 296 303 316 321 309 299 291 283 275 270 266 263 262 258 256 257 261 268 299 326 337 346 351 355 359 4 8 5 5 11 16 nan nan nan nan
278 279 277 279 285 294 299 300 300 306 316 321 325 328 322 320 319 325 328 327 328 332 333 332 333 329 319 311 308 301 300 299 295 295 292 294 290 291 289 289 294 294 292 291 306 309 297 288 278 267 265 264 263 259 259 259 265 273 290 309 326 343 349 354 356 358 3 5 5 9 15 nan nan nan
276 276 274 274 280 286 292 294 296 297 304 306 311 311 314 315 319 322 321 319 321 323 325 327 330 328 319 313 306 300 300 304 301 295 293 290 291 290 291 288 286 288 296 305 300 289 283 279 279 281 271 262 262 269 258 257 261 269 279 289 299 309 327 341 349 353 355 360 6 9 12 14 17 nan
271 273 269 269 276 283 290 297 296 298 300 300 304 303 302 302 306 310 309 309 310 313 318 321 321 319 312 311 309 305 307 307 305 298 297 295 294 293 296 289 285 283 284 284 292 315 318 309 305 292 283 275 266 255 273 260 256 260 267 280 289 295 305 317 334 341 347 356 359 7 19 17 12 11
270 274 273 272 271 274 290 302 302 298 289 293 298 301 301 301 299 298 297 298 301 304 308 309 306 309 310 308 304 303 303 300 294 296 297 299 302 299 302 298 291 289 290 287 287 288 282 282 278 275 271 266 267 266 258 270 263 257 261 261 265 274 283 300 314 322 329 334 345 359 26 1 355 9
260 266 270 273 295 299 309 313 314 316 323 326 317 297 296 298 298 297 296 293 294 297 298 303 303 303 305 303 301 297 297 297 300 300 298 297 295 297 298 298 291 287 290 291 289 289 290 288 285 280 273 275 272 274 271 267 267 262 259 258 258 257 259 264 272 285 299 310 321 324 4 348 343 349
245 245 248 249 269 289 296 301 319 322 323 323 327 330 324 311 299 294 295 295 294 294 295 295 296 296 296 294 291 294 292 293 292 291 293 294 295 296 296 297 296 286 287 290 289 286 286 289 288 284 280 nan nan nan nan nan 262 259 258 257 256 255 256 258 261 263 271 288 303 308 328 327 325 334
239 232 233 238 247 262 274 272 291 309 310 308 308 312 314 316 322 320 306 293 291 292 294 295 295 292 292 290 292 289 288 288 290 290 290 293 294 295 298 297 295 289 288 290 290 289 288 288 288 286 nan nan nan nan nan nan nan nan nan nan nan nan 255 255 257 259 262 264 271 286 301 302 298 300
239 237 235 232 240 252 272 277 263 258 260 262 284 301 309 315 318 321 327 325 311 292 291 293 295 297 291 291 290 288 282 283 284 285 286 288 290 291 293 294 293 291 290 296 nan nan 289 292 290 289 nan nan nan nan nan nan nan nan nan nan nan nan nan nan nan 254 255 258 261 265 269 273 276 285
240 244 245 246 248 251 254 264 275 288 290 286 280 286 295 298 304 313 319 322 322 315 300 298 297 292 293 290 285 285 283 282 279 277 275 279 281 285 286 286 288 286 286 288 nan nan 292 291 291 289 nan 286 nan nan nan nan nan nan nan nan nan nan nan nan nan nan nan 254 257 260 265 271 274 275
246 249 252 254 258 259 267 276 280 285 291 289 287 286 286 288 288 290 296 302 303 304 304 304 301 293 289 288 287 285 281 278 274 272 271 272 274 276 281 285 286 285 nan 286 292 nan nan 293 293 290 nan nan nan nan nan nan nan nan nan nan nan nan nan nan nan nan nan nan nan nan nan nan nan nan
250 253 255 256 260 264 270 282 293 292 290 290 293 293 293 289 287 286 280 274 273 277 281 284 280 278 274 272 274 273 274 277 275 274 276 277 278 281 281 280 281 278 nan nan 286 nan nan 288 nan nan nan nan nan nan nan nan nan nan nan nan nan nan nan nan nan nan nan nan nan nan nan nan nan nan
254 258 261 262 264 269 272 279 292 296 294 290 294 294 295 292 288 287 282 283 279 276 274 268 266 267 270 271 276 280 277 276 273 277 277 278 280 278 277 276 278 277 nan nan nan nan nan nan 293 nan nan nan nan nan nan nan nan nan nan nan nan nan nan nan nan nan nan nan nan nan nan nan nan nan
259 260 260 264 267 266 266 262 277 275 278 287 290 292 292 289 285 280 276 276 278 277 272 267 264 264 266 275 281 284 286 289 284 284 279 278 278 277 276 276 275 nan nan nan nan nan nan nan nan 293 nan nan nan nan nan nan nan nan nan nan nan nan nan nan nan nan nan nan nan nan nan nan nan nan
258 261 262 262 266 268 268 267 270 273 279 285 289 294 292 287 285 274 268 264 262 263 269 268 266 270 271 270 276 284 289 292 291 282 278 278 280 278 275 nan 279 nan nan nan 279 nan nan nan nan nan nan nan nan nan nan nan nan nan nan nan nan nan nan nan nan nan nan nan nan nan nan nan nan nan
259 261 261 266 266 267 269 271 273 279 282 285 282 284 290 286 281 270 264 258 258 260 259 262 263 265 265 267 272 280 286 287 287 284 282 278 275 nan nan nan nan nan nan nan 272 nan nan nan nan nan nan nan nan nan nan nan nan nan nan nan nan nan nan nan nan nan nan nan nan nan nan nan nan nan
257 258 260 262 267 268 nan nan nan nan 267 273 284 283 282 279 278 277 275 271 263 260 260 260 260 263 266 268 272 277 282 285 286 282 275 nan nan nan nan nan nan nan nan nan nan nan nan nan nan nan nan nan nan nan nan nan nan nan nan nan nan nan nan nan nan nan nan nan nan nan nan nan nan nan
260 260 262 nan nan nan nan nan nan nan nan nan nan 271 270 269 268 279 279 275 270 268 267 262 260 261 264 267 270 272 276 282 284 281 nan nan 267 nan nan nan nan nan nan nan nan nan nan nan nan nan nan nan nan nan nan nan nan nan nan nan nan nan nan nan nan nan nan nan nan nan nan nan nan nan
nan nan nan nan nan nan nan nan nan nan nan nan nan nan 276 272 269 276 283 286 283 280 274 270 267 265 263 263 264 266 267 267 269 nan nan nan nan nan nan nan nan nan nan nan nan nan nan nan nan nan nan nan nan nan nan nan nan nan nan nan nan nan nan nan nan nan nan nan nan nan nan nan nan nan
nan nan nan nan nan nan nan nan nan nan nan nan nan nan 284 277 268 281 291 287 287 289 286 281 279 276 273 269 266 264 264 266 263 nan nan nan nan nan nan nan nan nan nan nan nan nan nan nan nan nan nan nan nan nan nan nan nan nan nan nan nan nan nan nan nan nan nan nan nan nan nan nan nan nan
nan nan nan nan nan nan nan nan nan nan nan nan nan 283 286 280 276 279 nan nan 282 283 282 281 nan 280 279 273 269 264 262 nan nan nan nan nan nan nan nan nan nan nan nan nan nan nan nan nan nan nan nan nan nan nan nan nan nan nan nan nan nan nan nan nan nan nan nan nan nan nan nan nan nan nan
nan nan nan nan nan nan nan nan nan nan nan nan nan nan nan nan nan nan nan nan nan nan nan nan nan nan nan nan nan nan nan nan nan nan nan nan nan nan nan nan nan nan nan nan nan nan nan nan nan nan nan nan nan nan nan nan nan nan nan nan nan nan nan nan nan nan nan nan nan nan nan nan nan nan
nan nan nan nan nan nan nan nan nan nan nan nan nan nan nan nan nan nan nan nan nan nan nan nan nan nan nan nan nan nan nan nan nan nan nan nan nan nan nan nan nan nan nan nan nan nan nan nan nan nan nan nan nan nan nan nan nan nan nan nan nan nan nan nan nan nan nan nan nan nan nan nan nan nan
nan nan nan nan nan nan nan nan nan nan nan nan nan nan nan nan nan nan nan nan nan nan nan nan nan nan nan nan nan nan nan nan nan nan nan nan nan nan nan nan nan nan nan nan nan nan nan nan nan nan nan nan nan nan nan nan nan nan nan nan nan nan nan nan nan nan nan nan nan nan nan nan nan nan
nan nan nan nan nan nan nan nan nan nan nan nan nan nan nan nan nan nan nan nan nan nan nan nan nan nan nan nan nan nan nan nan nan nan nan nan nan nan nan nan nan nan nan nan nan nan nan nan nan nan nan nan nan nan nan nan nan nan nan nan nan nan nan nan nan nan nan nan nan nan nan nan nan nan
nan nan nan nan nan nan nan nan nan nan nan nan nan nan nan nan nan nan nan nan nan nan nan nan nan nan nan nan nan nan nan nan nan nan nan nan nan nan nan nan nan nan nan nan nan nan nan nan nan nan nan nan nan nan nan nan nan nan nan nan nan nan nan nan nan nan nan nan nan nan nan nan nan nan
nan nan nan nan nan nan nan nan nan nan nan nan nan nan nan nan nan nan nan nan nan nan nan nan nan nan nan nan nan nan nan nan nan nan nan nan nan nan nan nan nan nan nan nan nan nan nan nan nan nan nan nan nan nan nan nan nan nan nan nan nan nan nan nan nan nan nan nan nan nan nan nan nan nan
nan nan nan nan nan nan nan nan nan nan nan nan nan nan nan nan nan nan nan nan nan nan nan nan nan nan nan nan nan nan nan nan nan nan nan nan nan nan nan nan nan nan nan nan nan nan nan nan nan nan nan nan nan nan nan nan nan nan nan nan nan nan nan nan nan nan nan nan nan nan nan nan nan nan
nan nan nan nan nan nan nan nan nan nan nan nan nan nan nan nan nan nan nan nan nan nan nan nan nan nan nan nan nan nan nan nan nan nan nan nan nan nan nan nan nan nan nan nan nan nan nan nan nan nan nan nan nan nan nan nan nan nan nan nan nan nan nan nan nan nan nan nan nan nan nan nan nan nan
nan nan nan nan nan nan nan nan nan nan nan nan nan nan nan nan nan nan nan nan nan nan nan nan nan nan nan nan nan nan nan nan nan nan nan nan nan nan nan nan nan nan nan nan nan nan nan nan nan nan nan nan nan nan nan nan nan nan nan nan nan nan nan nan nan nan nan nan nan nan nan nan nan nan
nan nan nan nan nan nan nan nan nan nan nan nan nan nan nan nan nan nan nan nan nan nan nan nan nan nan nan nan nan nan nan nan nan nan nan nan nan nan nan nan nan nan nan nan nan nan nan nan nan nan nan nan nan nan nan nan nan nan nan nan nan nan nan nan nan nan nan nan nan nan nan nan nan nan
nan nan nan nan nan nan nan nan nan nan nan nan nan nan nan nan nan nan nan nan nan nan nan nan nan nan nan nan nan nan nan nan nan nan nan nan nan nan nan nan nan nan nan nan nan nan nan nan nan nan nan nan nan nan nan nan nan nan nan nan nan nan nan nan nan nan nan nan nan nan nan nan nan nan
nan nan nan nan nan nan nan nan nan nan nan nan nan nan nan nan nan nan nan nan nan nan nan nan nan nan nan nan nan nan nan nan nan nan nan nan nan nan nan nan nan nan nan nan nan nan nan nan nan nan nan nan nan nan nan nan nan nan nan nan nan nan nan nan nan nan nan nan nan nan nan nan nan nan
nan nan nan nan nan nan nan nan nan nan nan nan nan nan nan nan nan nan nan nan nan nan nan nan nan nan nan nan nan nan nan nan nan nan nan nan nan nan nan nan nan nan nan nan nan nan nan nan nan nan nan nan nan nan nan nan nan nan nan nan nan nan nan nan nan nan nan nan nan nan nan nan nan nan
nan nan nan nan nan nan nan nan nan nan nan nan nan nan nan nan nan nan nan nan nan nan nan nan nan nan nan nan nan nan nan nan nan nan nan nan nan nan nan nan nan nan nan nan nan nan nan nan nan nan nan nan nan nan nan nan nan nan nan nan nan nan nan nan nan nan nan nan nan nan nan nan nan nan
nan nan nan nan nan nan nan nan nan nan nan nan nan nan nan nan nan nan nan nan nan nan nan nan nan nan nan nan nan nan nan nan nan nan nan nan nan nan nan nan nan nan nan nan nan nan nan nan nan nan nan nan nan nan nan nan nan nan nan nan nan nan nan nan nan nan nan nan nan nan nan nan nan nan
nan nan nan nan nan nan nan nan nan nan nan nan nan nan nan nan nan nan nan nan nan nan nan nan nan nan nan nan nan nan nan nan nan nan nan nan nan nan nan nan nan nan nan nan nan nan nan nan nan nan nan nan nan nan nan nan nan nan nan nan nan nan nan nan nan nan nan nan nan nan nan nan nan nan